Location: Drocourt
(49.0571°N, 1.7669°E)
Time: 14:21:36
(UTC+00:00)

Vanguard 2 Rocket - Pass Details

Date: 22 April 2024
Orbit: 556 x 3304 km, 32.9° (Epoch: 22 May)

Event Time Altitude Azimuth Distance (km) Brightness Sun altitude
Rises 01:06:44 0° 268° (W) 7,065 11.2 -26.4°
Reaches altitude 10° 01:11:46 10° 262° (W) 6,190 10.8 -26.1°
Maximum altitude 01:29:11 39° 203° (SSW) 4,120 9.6 -24.9°
Drops below altitude 10° 01:43:46 10° 142° (SE) 5,197 10.5 -23.8°
Sets 01:47:34 0° 135° (SE) 5,874 10.9 -23.5°
